Date,TemperatureHighF,TemperatureAvgF,TemperatureLowF,DewpointHighF,DewpointAvgF,DewpointLowF,HumidityHigh,HumidityAvg,HumidityLow,PressureMaxIn,PressureMinIn,WindSpeedMaxMPH,WindSpeedAvgMPH,GustSpeedMaxMPH,PrecipitationSumIn
2013-1-1,36.0,32.4,27.0,34.0,31.3,26.0,97,96,93,30.40,30.28,7,2,9,0.00
2013-1-2,36.0,29.9,26.0,34.0,28.5,25.0,97,95,86,30.28,30.15,5,1,8,0.00
2013-1-3,42.0,31.8,23.0,39.0,30.0,22.0,97,94,86,30.24,30.10,7,1,8,0.00
2013-1-4,52.0,43.8,39.0,47.0,41.3,38.0,97,91,76,30.28,30.11,5,2,8,0.00
2013-1-5,41.0,38.1,36.0,40.0,37.1,35.0,97,97,97,30.17,30.11,5,0,9,0.00
2013-1-6,51.0,43.0,37.0,45.0,40.5,36.0,97,91,73,30.20,30.09,5,2,7,0.02
2013-1-7,53.0,48.4,43.0,50.0,46.6,42.0,97,93,86,30.21,30.07,6,2,9,0.03
2013-1-8,56.0,50.6,46.0,50.0,47.4,45.0,97,89,76,30.21,29.93,9,2,11,0.00
2013-1-9,47.0,41.7,35.0,45.0,40.3,34.0,97,95,87,29.98,29.76,7,2,10,0.21
2013-1-10,42.0,36.7,33.0,40.0,35.5,32.0,97,96,92,30.11,29.98,4,1,8,0.15
2013-1-11,41.0,35.5,29.0,39.0,33.6,28.0,97,93,76,30.27,30.11,5,1,9,0.02
2013-1-12,32.0,28.5,25.0,31.0,27.5,24.0,97,97,93,30.36,30.26,5,1,10,0.01
2013-1-13,30.0,28.1,27.0,28.0,27.0,26.0,97,96,93,30.44,30.35,4,1,6,0.00
2013-1-14,40.0,32.0,26.0,34.0,29.2,25.0,97,90,67,30.52,30.44,4,1,7,0.00
2013-1-15,38.0,33.0,27.0,37.0,31.9,26.0,97,96,93,30.60,30.51,6,1,9,0.00
2013-1-16,35.0,33.0,32.0,34.0,32.0,31.0,97,97,97,30.60,30.45,5,1,7,0.00
2013-1-17,32.0,31.3,30.0,31.0,30.3,29.0,97,97,97,30.45,30.29,4,1,6,0.00
2013-1-18,33.0,30.6,28.0,32.0,29.6,27.0,97,97,97,30.29,30.23,4,0,6,0.00
2013-1-19,32.0,30.1,28.0,31.0,29.1,27.0,97,97,97,30.30,30.24,4,0,6,0.00
2013-1-20,31.0,28.4,27.0,30.0,27.4,26.0,97,97,97,30.31,30.21,4,0,5,0.00
2013-1-21,30.0,27.8,26.0,29.0,26.8,25.0,97,97,97,30.24,30.11,3,0,6,0.00
2013-1-22,30.0,27.9,25.0,29.0,26.9,24.0,97,97,97,30.13,29.91,4,1,6,0.00
2013-1-23,38.0,33.8,30.0,37.0,32.8,29.0,97,97,97,30.15,29.87,7,1,11,0.30
2013-1-24,45.0,38.5,33.0,44.0,37.5,32.0,97,97,97,30.18,30.07,4,0,7,0.24
2013-1-25,51.0,46.8,39.0,50.0,45.2,36.0,97,95,70,30.12,29.95,4,0,6,0.54
2013-1-26,45.0,40.9,38.0,43.0,38.9,34.0,97,93,64,30.08,29.96,5,2,8,0.45
2013-1-27,43.0,39.9,37.0,42.0,38.9,36.0,97,97,97,30.16,30.06,5,1,7,0.21
2013-1-28,43.0,40.9,38.0,42.0,39.8,37.0,97,96,88,30.25,30.09,4,0,6,0.21
2013-1-29,47.0,44.6,40.0,46.0,42.4,39.0,97,92,81,30.49,30.24,4,1,7,0.07
2013-1-30,48.0,43.7,40.0,47.0,42.6,39.0,97,97,90,30.51,30.42,4,2,9,0.01
2013-1-31,51.0,44.8,40.0,48.0,42.9,39.0,97,94,79,30.40,30.31,5,1,6,0.01
2013-2-1,44.0,39.9,35.0,43.0,38.9,34.0,97,97,97,30.32,30.21,6,1,9,0.00
2013-2-2,52.0,41.1,35.0,47.0,39.6,34.0,97,95,81,30.29,30.22,4,1,6,0.00
2013-2-3,48.0,43.1,39.0,44.0,41.2,38.0,97,93,86,30.30,30.20,5,1,9,0.00
2013-2-4,54.0,45.8,40.0,47.0,42.6,39.0,97,89,69,30.20,29.93,5,1,7,0.00
2013-2-5,52.0,46.2,43.0,48.0,43.8,42.0,97,92,78,30.07,29.93,6,2,9,0.29
2013-2-6,54.0,47.1,41.0,44.0,41.9,40.0,97,83,61,30.11,29.85,9,2,12,0.09
2013-2-7,47.0,41.1,36.0,41.0,38.3,35.0,97,90,72,30.07,29.95,7,2,11,0.11
2013-2-8,43.0,39.0,36.0,38.0,36.8,35.0,97,92,80,30.24,30.07,8,2,12,0.01
2013-2-9,45.0,39.8,35.0,42.0,37.5,34.0,97,92,80,30.27,30.22,3,1,5,0.03
2013-2-10,46.0,42.3,40.0,42.0,39.9,38.0,97,92,82,30.29,30.25,6,1,10,0.03
2013-2-11,48.0,44.0,41.0,44.0,40.1,37.0,95,86,75,30.37,30.27,3,1,5,0.00
2013-2-12,52.0,46.9,43.0,49.0,45.1,42.0,97,94,85,30.47,30.37,4,2,6,0.05
2013-2-13,51.0,47.7,45.0,48.0,46.1,44.0,97,94,87,30.47,30.41,3,1,5,0.01
2013-2-14,54.0,46.7,42.0,48.0,44.0,40.0,97,91,77,30.53,30.41,8,2,14,0.01
2013-2-15,44.0,40.5,36.0,43.0,39.4,35.0,97,97,94,30.41,30.21,7,1,11,0.00
2013-2-16,49.0,41.1,35.0,47.0,39.6,34.0,97,95,87,30.28,30.22,7,1,11,0.02
2013-2-17,48.0,39.8,34.0,40.0,36.5,33.0,97,89,60,30.27,30.05,5,1,9,0.01
2013-2-18,47.0,38.5,31.0,39.0,35.1,30.0,97,89,71,30.05,29.72,7,1,9,0.01
2013-2-19,47.0,40.8,37.0,42.0,38.9,36.0,97,93,81,29.97,29.62,7,2,10,0.12
2013-2-20,48.0,40.9,35.0,42.0,38.3,34.0,97,91,69,30.10,29.96,8,1,12,0.16
2013-2-21,44.0,40.8,38.0,42.0,39.3,37.0,97,95,86,30.22,30.10,5,2,9,0.19
2013-2-22,47.0,43.0,38.0,44.0,41.0,37.0,97,93,80,30.20,29.96,6,3,11,0.17
2013-2-23,44.0,38.5,33.0,42.0,37.0,32.0,97,95,87,30.42,30.10,5,1,9,0.16
2013-2-24,51.0,40.6,32.0,42.0,36.6,31.0,97,87,63,30.44,30.11,5,2,8,0.01
2013-2-25,49.0,42.6,37.0,42.0,39.4,36.0,97,89,60,30.37,30.08,8,2,14,0.13
2013-2-26,51.0,40.9,31.0,41.0,36.5,30.0,97,86,60,30.37,30.21,6,2,11,0.01
2013-2-27,52.0,44.3,38.0,46.0,41.3,36.0,96,90,77,30.29,30.21,7,4,10,0.08
2013-2-28,56.0,50.5,46.0,53.0,48.5,44.0,97,93,88,30.45,30.20,6,3,11,0.07
2013-3-1,63.0,53.3,47.0,52.0,49.4,46.0,97,87,65,30.45,30.28,5,2,8,0.01
2013-3-2,53.0,49.3,43.0,51.0,46.9,42.0,97,91,86,30.28,30.16,7,2,10,0.09
2013-3-3,49.0,42.1,34.0,42.0,37.0,32.0,97,83,63,30.27,30.17,9,3,16,0.10
2013-3-4,53.0,39.2,28.0,44.0,35.6,27.0,97,88,68,30.17,29.88,5,1,8,0.00
2013-3-5,46.0,41.8,38.0,45.0,40.6,36.0,97,96,94,29.88,29.58,6,1,9,0.49
2013-3-6,48.0,42.5,39.0,44.0,40.7,38.0,97,94,82,29.95,29.52,8,2,13,0.69
2013-3-7,54.0,42.6,33.0,42.0,38.1,32.0,97,86,56,30.00,29.93,7,3,10,0.01
2013-3-8,53.0,42.1,35.0,44.0,39.3,34.0,97,90,72,30.17,29.97,6,1,9,0.01
2013-3-9,58.0,44.4,33.0,43.0,37.7,32.0,97,80,44,30.46,30.17,6,2,9,0.00
2013-3-10,61.0,47.8,35.0,50.0,40.1,34.0,97,77,45,30.47,30.34,6,2,11,0.00
2013-3-11,62.0,54.1,48.0,53.0,50.1,47.0,96,87,71,30.37,30.21,6,2,9,0.00
2013-3-12,61.0,51.8,44.0,52.0,48.3,43.0,97,89,71,30.22,30.11,4,1,9,0.00
2013-3-13,66.0,56.2,49.0,55.0,50.3,47.0,95,81,62,30.20,30.04,5,1,8,0.00
2013-3-14,60.0,53.2,47.0,52.0,48.3,45.0,97,84,60,30.19,30.02,7,2,12,0.00
2013-3-15,65.0,55.9,50.0,52.0,50.2,47.0,94,82,53,30.20,30.13,6,2,9,0.00
2013-3-16,50.0,47.9,43.0,48.0,45.7,41.0,96,92,85,30.17,30.03,7,2,11,0.11
2013-3-17,50.0,43.0,35.0,41.0,37.5,34.0,97,82,60,30.31,30.16,6,2,9,0.04
2013-3-18,54.0,43.2,31.0,43.0,37.7,30.0,97,82,65,30.26,30.08,10,2,16,0.00
2013-3-19,51.0,44.8,39.0,49.0,42.3,37.0,97,92,76,30.08,29.66,5,1,11,0.34
2013-3-20,53.0,47.6,39.0,51.0,45.3,37.0,97,92,77,30.19,29.61,9,4,13,0.77
2013-3-21,48.0,40.6,36.0,41.0,37.2,35.0,97,88,70,30.31,30.19,7,2,10,0.04
2013-3-22,48.0,40.1,36.0,40.0,36.0,34.0,97,86,60,30.35,30.29,7,1,9,0.05
2013-3-23,49.0,39.2,32.0,40.0,35.2,31.0,97,87,66,30.35,30.21,6,2,11,0.02
2013-3-24,53.0,43.1,34.0,44.0,38.8,33.0,96,85,69,30.22,30.02,6,1,10,0.00
2013-3-25,54.0,46.2,38.0,46.0,42.3,37.0,97,87,70,30.03,29.88,6,1,8,0.00
2013-3-26,53.0,48.0,44.0,49.0,45.2,43.0,97,90,78,29.98,29.93,3,0,4,0.06
2013-3-27,64.0,50.3,42.0,53.0,47.2,41.0,97,90,57,29.96,29.85,8,1,15,0.02
2013-3-28,63.0,54.1,49.0,54.0,50.6,48.0,97,89,64,30.10,29.95,8,2,12,0.08
2013-3-29,66.0,56.1,49.0,55.0,51.8,48.0,97,86,66,30.16,30.06,7,2,12,0.01
2013-3-30,69.0,54.4,42.0,57.0,48.6,-99.9,97,85,63,30.15,29.89,8,2,10,0.00
2013-3-31,68.0,56.9,48.0,53.0,50.6,47.0,96,81,55,30.00,29.91,9,3,11,0.01
2013-4-1,60.0,54.3,52.0,52.0,51.1,50.0,95,89,76,30.16,29.99,5,1,7,0.01
2013-4-2,67.0,56.8,50.0,52.0,50.1,48.0,94,80,53,30.17,30.07,6,1,7,0.00
2013-4-3,60.0,52.2,43.0,56.0,49.6,42.0,97,91,76,30.14,29.88,7,2,10,0.00
2013-4-4,60.0,55.4,52.0,56.0,52.9,49.0,97,92,79,29.88,29.68,11,2,18,0.17
2013-4-5,58.0,52.6,50.0,52.0,50.0,48.0,97,91,74,29.95,29.85,6,2,11,0.22
2013-4-6,54.0,49.6,47.0,52.0,48.1,46.0,97,95,90,30.01,29.72,6,2,12,0.70
2013-4-7,52.0,47.0,42.0,49.0,43.9,41.0,97,89,69,29.96,29.67,9,3,14,0.30
2013-4-8,53.0,45.5,40.0,47.0,42.2,39.0,97,89,70,30.25,29.96,6,1,9,0.10
2013-4-9,57.0,49.0,41.0,50.0,44.6,40.0,97,86,66,30.32,30.22,6,1,7,0.02
2013-4-10,61.0,51.0,44.0,52.0,46.7,42.0,95,86,63,30.30,30.19,6,3,10,0.02
2013-4-11,55.0,46.6,37.0,44.0,41.2,36.0,97,83,56,30.32,30.12,8,2,12,0.01
2013-4-12,60.0,46.8,35.0,47.0,40.8,34.0,97,81,54,30.12,29.87,5,1,9,0.00
2013-4-13,51.0,44.9,38.0,47.0,39.5,35.0,97,82,57,30.10,29.93,6,2,10,0.10
2013-4-14,49.0,42.1,38.0,43.0,39.2,36.0,97,90,75,30.10,29.90,6,2,9,0.10
2013-4-15,51.0,43.4,39.0,42.0,39.8,38.0,97,88,63,30.15,29.93,9,2,11,0.23
2013-4-16,56.0,46.3,40.0,46.0,40.9,38.0,97,83,52,30.35,30.15,8,2,11,0.02
2013-4-17,58.0,47.6,37.0,45.0,40.4,36.0,97,79,44,30.46,30.35,6,2,8,0.00
2013-4-18,62.0,52.5,43.0,50.0,44.8,41.0,94,76,51,30.45,30.30,5,1,9,0.00
2013-4-19,59.0,51.8,48.0,53.0,48.8,46.0,97,90,76,30.32,30.22,6,2,10,0.22
2013-4-20,61.0,52.9,47.0,49.0,46.3,44.0,95,80,54,30.32,30.20,7,2,10,0.01
2013-4-21,61.0,50.8,45.0,52.0,46.2,43.0,96,85,65,30.28,30.18,7,2,11,0.00
2013-4-22,63.0,51.4,40.0,49.0,43.1,39.0,97,76,45,30.32,30.22,11,4,17,0.00
2013-4-23,66.0,50.2,33.0,42.0,37.4,32.0,95,66,31,30.29,30.06,9,2,15,0.00
2013-4-24,70.0,54.7,36.0,47.0,41.7,34.0,94,65,38,30.16,29.93,10,2,14,0.00
2013-4-25,74.0,57.8,42.0,52.0,44.6,37.0,95,66,31,30.09,29.96,6,1,8,0.00
2013-4-26,75.0,61.1,46.0,53.0,48.2,40.0,95,66,28,30.20,30.09,5,1,8,0.00
2013-4-27,74.0,60.4,46.0,48.0,43.2,34.0,93,59,25,30.24,30.14,7,2,12,0.00
2013-4-28,66.0,56.0,47.0,51.0,46.5,44.0,91,72,47,30.26,30.10,4,1,6,0.00
2013-4-29,58.0,52.7,43.0,50.0,44.4,37.0,97,74,52,30.18,30.10,7,3,12,0.07
2013-4-30,55.0,46.1,34.0,40.0,36.5,33.0,96,71,49,30.35,30.18,7,2,13,0.02
2013-5-1,64.0,49.5,33.0,46.0,40.5,32.0,96,74,47,30.45,30.33,9,3,15,0.00
2013-5-2,74.0,57.8,40.0,50.0,44.6,39.0,96,66,31,30.36,30.16,8,2,13,0.00
2013-5-3,73.0,59.7,44.0,51.0,46.6,42.0,94,65,42,30.24,30.04,8,2,15,0.00
2013-5-4,81.0,64.6,46.0,54.0,42.4,30.0,94,53,17,30.05,29.78,10,2,16,0.00
2013-5-5,85.0,66.9,48.0,52.0,44.6,36.0,83,49,19,29.78,29.57,10,2,23,0.00
2013-5-6,76.0,62.5,50.0,56.0,49.7,47.0,89,65,42,29.91,29.74,6,1,10,0.00
2013-5-7,72.0,58.8,47.0,53.0,49.9,45.0,95,74,48,30.03,29.88,7,1,10,0.00
2013-5-8,67.0,56.8,47.0,56.0,50.8,45.0,94,81,62,30.10,30.02,6,1,10,0.00
2013-5-9,74.0,61.5,48.0,58.0,53.0,47.0,96,76,46,30.16,30.02,7,1,11,0.00
2013-5-10,78.0,63.8,52.0,59.0,52.2,-99.9,94,72,40,30.17,30.06,6,1,10,0.00
2013-5-11,81.0,66.3,54.0,62.0,54.5,-99.9,92,70,35,30.17,29.96,5,1,6,0.00
2013-5-12,75.0,63.6,57.0,60.0,55.9,49.0,94,77,43,30.11,30.03,5,1,7,0.00
2013-5-13,66.0,58.5,50.0,56.0,52.6,47.0,97,82,59,30.18,30.04,5,1,9,0.02
2013-5-14,65.0,55.6,46.0,50.0,45.2,36.0,97,72,34,30.18,30.04,5,1,8,0.01
2013-5-15,61.0,53.5,47.0,53.0,47.5,42.0,92,81,66,30.09,29.98,5,0,6,0.08
2013-5-16,58.0,51.2,51.0,53.0,36.4,-99.9,97,90,80,29.98,29.93,3,0,5,0.19
2013-5-17,62.0,53.9,48.0,50.0,44.9,-99.9,96,80,56,30.09,29.98,4,1,5,0.01
2013-5-18,59.0,53.2,50.0,53.0,49.7,47.0,95,88,75,30.27,30.08,5,1,8,0.07
2013-5-19,65.0,56.1,51.0,52.0,49.9,47.0,97,81,54,30.36,30.26,6,2,11,0.04
2013-5-20,70.0,55.3,42.0,52.0,45.6,32.0,97,74,38,30.29,29.91,5,2,10,0.01
2013-5-21,55.0,47.1,42.0,49.0,44.3,39.0,97,91,55,30.03,29.82,6,1,11,0.94
2013-5-22,49.0,44.2,39.0,45.0,42.2,38.0,97,93,82,30.03,29.98,5,2,9,0.28
2013-5-23,57.0,49.3,44.0,50.0,45.1,42.0,96,86,64,30.02,29.99,6,2,11,0.18
2013-5-24,60.0,51.5,46.0,48.0,46.2,44.0,96,83,62,30.07,30.00,5,1,7,0.13
2013-5-25,69.0,54.4,41.0,52.0,46.2,40.0,97,77,44,30.06,29.89,5,1,7,0.25
2013-5-26,63.0,55.4,51.0,53.0,50.5,48.0,97,84,61,30.02,29.93,5,2,9,0.46
2013-5-27,63.0,54.2,49.0,59.0,51.6,48.0,97,91,76,29.97,29.75,6,2,15,0.65
2013-5-28,63.0,56.1,51.0,52.0,50.1,48.0,95,81,60,29.93,29.73,5,2,8,0.11
2013-5-29,60.0,54.1,50.0,56.0,50.3,47.0,97,87,71,30.06,29.67,6,2,12,0.27
2013-5-30,61.0,53.2,47.0,50.0,46.8,45.0,94,80,59,30.22,30.06,4,1,6,0.04
2013-5-31,66.0,55.7,44.0,51.0,48.2,43.0,97,77,55,30.28,30.17,7,2,10,0.01
2013-6-1,73.0,60.2,46.0,55.0,50.4,45.0,96,73,45,30.20,29.97,6,2,10,0.00
2013-6-2,69.0,59.6,53.0,55.0,51.9,50.0,93,77,52,30.04,29.97,7,3,12,0.00
2013-6-3,71.0,59.3,47.0,55.0,51.1,46.0,97,77,50,30.06,29.95,8,2,13,0.00
2013-6-4,76.0,62.8,48.0,57.0,52.6,47.0,96,72,40,30.03,29.92,7,2,12,0.00
2013-6-5,80.0,67.5,53.0,61.0,54.4,46.0,95,67,30,30.03,29.90,7,2,13,0.00
2013-6-6,78.0,67.8,56.0,60.0,56.7,51.0,94,70,40,30.00,29.92,7,2,13,0.00
2013-6-7,79.0,66.2,54.0,60.0,53.2,42.0,90,66,30,30.08,30.00,7,2,15,0.00
2013-6-8,76.0,63.2,51.0,56.0,50.7,40.0,95,69,28,30.10,29.97,7,3,13,0.00
2013-6-9,71.0,61.1,50.0,54.0,50.4,45.0,92,70,41,30.03,29.90,7,4,14,0.00
2013-6-10,68.0,56.6,45.0,51.0,47.1,43.0,95,73,45,29.96,29.84,7,3,11,0.00
2013-6-11,63.0,56.5,52.0,49.0,46.9,43.0,87,71,52,30.11,29.96,5,2,7,0.00
2013-6-12,63.0,55.3,48.0,49.0,47.6,46.0,94,76,55,30.16,30.10,4,1,7,0.00
2013-6-13,58.0,52.6,48.0,55.0,49.8,46.0,97,90,77,30.28,30.16,4,1,7,0.38
2013-6-14,69.0,56.6,46.0,55.0,50.1,45.0,97,81,54,30.27,29.93,7,2,12,0.04
2013-6-15,76.0,62.0,48.0,56.0,51.7,44.0,97,73,35,30.02,29.87,5,2,7,0.00
2013-6-16,74.0,60.6,50.0,55.0,51.8,49.0,95,75,48,30.12,30.01,6,2,9,0.00
2013-6-17,74.0,61.0,51.0,55.0,51.6,49.0,94,74,41,30.10,29.92,7,2,12,0.00
2013-6-18,66.0,58.6,50.0,53.0,50.2,47.0,93,74,53,30.00,29.92,6,2,8,0.00
2013-6-19,64.0,56.0,52.0,55.0,50.4,48.0,96,82,61,30.09,29.95,5,1,8,0.47
2013-6-20,63.0,54.5,51.0,56.0,51.1,49.0,94,89,69,30.09,30.03,4,1,8,0.34
2013-6-21,68.0,68.0,68.0,51.0,49.8,48.0,55,52,48,30.10,30.05,6,4,7,0.22
2013-6-22,78.0,70.1,49.0,56.0,50.4,46.0,96,52,35,30.04,29.82,4,2,7,0.00
2013-6-23,72.0,64.0,58.0,63.0,57.1,51.0,96,79,58,29.85,29.61,4,1,7,0.19
2013-6-24,64.0,57.8,54.0,57.0,53.9,52.0,96,87,68,29.70,29.65,5,1,11,0.29
2013-6-25,64.0,59.4,56.0,60.0,57.0,55.0,97,92,79,29.84,29.65,4,1,7,0.42
2013-6-26,68.0,62.2,57.0,60.0,57.5,56.0,97,85,67,29.99,29.82,4,1,8,0.07
2013-6-27,79.0,67.7,59.0,62.0,59.2,57.0,93,76,50,30.11,29.98,5,2,8,0.01
2013-6-28,86.0,72.7,59.0,63.0,59.3,55.0,96,67,37,30.11,29.98,5,2,7,0.00
2013-6-29,85.0,72.9,59.0,61.0,57.6,54.0,93,62,36,30.08,29.91,6,2,8,0.00
2013-6-30,88.0,73.2,59.0,64.0,60.0,57.0,93,66,35,29.93,29.80,4,2,7,0.00
2013-7-1,86.0,74.1,62.0,66.0,61.4,58.0,90,66,47,29.94,29.88,5,1,9,0.00
2013-7-2,87.0,73.8,61.0,65.0,61.8,53.0,93,69,43,30.03,29.93,6,2,10,0.00
2013-7-3,83.0,71.3,59.0,61.0,53.4,36.0,91,57,19,30.07,29.96,6,3,12,0.00
2013-7-4,75.0,65.1,53.0,56.0,51.1,47.0,92,64,40,30.09,29.94,7,4,13,0.00
2013-7-5,73.0,62.6,51.0,56.0,51.4,48.0,93,69,43,30.02,29.87,7,3,12,0.00
2013-7-6,75.0,61.4,51.0,58.0,53.2,49.0,95,77,49,29.93,29.79,8,3,12,0.00
2013-7-7,78.0,66.1,54.0,59.0,55.6,52.0,95,72,43,29.92,29.81,6,2,10,0.00
2013-7-8,79.0,63.0,53.0,58.0,52.1,-99.9,94,73,39,30.04,29.92,7,2,12,0.00
2013-7-9,85.0,71.5,55.0,60.0,55.1,47.0,94,62,28,30.03,29.91,7,2,10,0.00
2013-7-10,81.0,68.6,57.0,58.0,52.0,-99.9,89,61,34,30.02,29.84,7,3,13,0.00
2013-7-11,73.0,62.3,50.0,52.0,48.8,43.0,92,64,36,30.04,29.89,7,3,13,0.00
2013-7-12,74.0,61.5,50.0,53.0,49.4,45.0,93,68,37,30.04,29.93,5,2,7,0.00
2013-7-13,78.0,65.4,50.0,52.0,47.7,42.0,93,58,30,30.13,29.94,9,3,12,0.00
2013-7-14,83.0,68.5,51.0,55.0,50.4,44.0,91,57,27,30.04,29.88,8,2,14,0.00
2013-7-15,82.0,67.4,52.0,55.0,50.4,47.0,86,57,32,29.95,29.73,7,2,13,0.00
2013-7-16,80.0,65.7,59.0,59.0,55.6,53.0,89,72,48,30.02,29.73,5,1,8,0.00
2013-7-17,76.0,64.8,58.0,56.0,54.2,52.0,86,71,44,30.13,30.02,5,1,8,0.00
2013-7-18,81.0,64.3,52.0,58.0,53.2,43.0,95,72,27,30.15,30.00,7,2,11,0.00
2013-7-19,81.0,67.2,53.0,60.0,55.8,51.0,94,69,42,30.11,29.93,7,3,12,0.00
2013-7-20,79.0,64.9,53.0,60.0,54.4,-99.9,95,73,43,30.03,29.87,8,3,12,0.00
2013-7-21,82.0,68.2,53.0,60.0,54.6,51.0,94,66,36,29.94,29.80,8,3,12,0.00
2013-7-22,83.0,67.9,56.0,60.0,53.9,47.0,94,66,30,29.98,29.86,8,2,12,0.00
2013-7-23,87.0,69.9,53.0,60.0,53.7,47.0,90,61,26,29.98,29.87,5,1,9,0.00
2013-7-24,88.0,73.0,58.0,59.0,54.3,42.0,89,57,20,29.98,29.88,6,2,9,0.00
2013-7-25,87.0,72.4,57.0,57.0,51.1,37.0,85,53,18,30.02,29.91,6,2,12,0.00
2013-7-26,86.0,71.6,59.0,56.0,52.0,44.0,78,54,24,30.08,29.96,7,2,11,0.00
2013-7-27,79.0,66.8,52.0,53.0,47.7,37.0,86,54,23,30.13,29.93,7,2,12,0.00
2013-7-28,76.0,62.2,50.0,56.0,50.3,45.0,94,69,36,30.03,29.88,6,2,11,0.00
2013-7-29,76.0,62.9,51.0,58.0,53.3,49.0,95,74,44,30.00,29.89,5,2,9,0.00
2013-7-30,78.0,63.7,54.0,60.0,55.5,52.0,94,77,43,30.11,30.00,4,1,9,0.00
2013-7-31,73.0,62.1,57.0,60.0,57.1,55.0,93,84,64,30.09,30.00,4,1,7,0.00
2013-8-1,64.0,60.6,57.0,57.0,55.6,54.0,92,84,75,30.11,30.04,2,0,5,0.00
2013-8-2,73.0,62.3,55.0,57.0,54.7,50.0,94,78,51,30.11,30.01,7,1,11,0.00
2013-8-3,79.0,66.6,51.0,59.0,55.6,50.0,96,71,44,30.06,29.91,6,2,11,0.00
2013-8-4,85.0,70.3,55.0,61.0,56.8,53.0,95,67,34,29.98,29.84,6,2,10,0.00
2013-8-5,86.0,72.3,58.0,62.0,58.2,53.0,94,65,34,29.96,29.84,5,1,8,0.00
2013-8-6,88.0,73.4,59.0,60.0,53.3,41.0,92,56,20,29.95,29.83,6,1,10,0.00
2013-8-7,71.0,61.4,56.0,57.0,54.1,50.0,94,78,47,30.03,29.89,4,0,5,0.01
2013-8-8,80.0,64.7,54.0,63.0,56.1,52.0,95,77,46,30.03,29.84,4,1,9,0.01
2013-8-9,80.0,68.8,63.0,65.0,61.3,57.0,91,78,47,29.90,29.80,6,1,11,0.02
2013-8-10,73.0,63.6,56.0,62.0,58.4,54.0,94,84,60,30.03,29.89,4,1,7,0.02
2013-8-11,77.0,64.7,57.0,60.0,57.6,55.0,94,79,55,30.04,29.94,5,1,6,0.00
2013-8-21,81.0,68.1,53.0,60.0,54.2,50.0,92,64,36,29.95,29.79,4,1,9,0.00
2013-8-22,80.0,70.0,62.0,63.0,60.0,57.0,86,72,49,29.88,29.82,3,0,4,0.00
2013-8-23,74.0,64.3,57.0,59.0,57.3,55.0,93,79,58,29.93,29.84,4,1,7,0.00
2013-8-24,74.0,63.6,57.0,59.0,53.4,-99.9,94,75,52,29.90,29.80,3,1,5,0.00
2013-8-25,68.0,61.0,56.0,62.0,57.7,54.0,97,89,77,29.91,29.85,2,0,5,0.25
2013-8-26,79.0,65.9,56.0,60.0,55.8,52.0,97,74,41,29.93,29.86,4,1,7,0.12
2013-8-27,75.0,61.3,55.0,59.0,55.9,53.0,94,84,57,29.93,29.81,4,1,8,0.00
2013-10-18,63.0,49.7,41.0,53.0,46.7,40.0,97,90,68,30.13,30.03,4,1,8,0.00
2013-10-19,65.0,50.5,40.0,56.0,45.2,-99.9,97,87,68,30.11,30.04,3,1,5,0.01
2013-10-20,59.0,49.0,41.0,53.0,47.0,40.0,97,93,77,30.11,30.01,4,1,5,0.01
2013-10-21,60.0,47.8,41.0,55.0,46.1,40.0,97,95,82,30.05,29.93,4,0,6,0.01
2013-10-22,66.0,53.7,41.0,56.0,49.4,40.0,97,87,62,30.01,29.92,3,1,6,0.01
2013-10-23,65.0,52.8,43.0,57.0,49.8,42.0,97,90,73,29.98,29.90,3,0,5,0.01
2013-10-24,55.0,49.2,44.0,53.0,48.0,43.0,97,96,92,30.03,29.95,5,1,7,0.01